SCP
0 0 -0 -0 -0 -0 -0 -0 -0 -0 0 0 0 0 0 0 0 0 0 0 0 0 0 0 0 0 0 0 0 0 0 0 0 0 0 0 0 0 0 0 0 0 0
0 0 -0 -0 -0 -0 -0 -0 -0 -0 -0 0 0 0 0 0 0 0 0 0 0 0 0 0 0 0 0 0 0 0 0 0 0 0 0 0 0 0 0 0 0 0 -0
0 0 0 -0 0 -0 0 -0 -0 -0 -0 -0 0 0 0 0 0 0 0 0 0 0 0 0 0 0 0 0 0 0 0 0 0 0 0 0 0 0 0 0 0 0 0
0 0 0 0 0 0 0 0 0 0 -0 -0 -0 0 0 0 0 0 0 0 0 0 0 0 0 0 0 0 0 0 0 0 0 0 0 0 0 0 0 0 0 0 0
0 0 0 0 0 0 0 0 0 0 -0 -0 -0 -0 0 0 0 0 0 0 0 0 0 0 0 0 0 0 0 0 0 0 0 0 0 0 0 0 0 0 0 0 0
0 0 0 0 0 0 0 0 0 0 0 -0 -0 -0 -0 0 0 0 0 0 0 0 0 0 0 0 0 0 0 0 0 0 0 0 0 0 0 0 0 0 0 0 0
0 0 0 0 0 0 0 0 0 0 0 -0 -0 -0 0 0 0 0 0 0 0 0 0 0 0 0 0 0 0 0 0 0 0 0 -0 0 0 0 0 0 0 0 0
0 0 0 0 0 0 0 0 0 0 -0 -0 -0 0 0 0 0 0 0 0 0 0 0 0 0 0 0 0 0 0 0 0 0 0 0 0 0 0 0 0 0 0 0
0 0 0 0 0 0 0 0 0 0 -0 -0 0 0 0 0 0 0 0 0 0 0 0 0 0 0 0 0 0 0 0 0 0 0 0 0 0 0 0 0 0 0 0
0 0 0 0 0 0 0 0 0 0 0 0 0 0 0 0 0 0 0 0 0 0 0 0 0 0 0 0 0 0 0 0 0 0 0 0 0 0 0 0 0 0 0
0 0 0 0 0 0 0 0 0 0 0 0 0 0 0 0 0 0 0 0 0 0 0 0 0 0 0 0 0 0 0 0 0 0 0 0 0 0 0 0 0 0 0
0 0 0 0 0 0 0 0 0 0 0 0 0 0 0 0 0 0 0 0 0 0 0 0 0 0 0 0 0 0 0 0 0 0 0 0 0 0 0 0 0 0 0
0 0 0 0 0 0 0 0 0 0 0 0 0 0 0 0 0 0 0 0 0 0 0 0 0 0 0 0 0 0 0 0 0 0 0 0 0 0 0 0 0 0 0
0 0 0 0 0 0 0 0 0 0 0 0 0 0 0 0 0 0 0 0 0 0 0 0 0 0 0 0 0 0 0 0 0 0 0 0 0 0 0 0 0 0 0
0 0 0 0 0 0 0 0 0 0 0 0 0 0 0 0 0 0 0 0 0 0 0 0 0 0 0 0 0 0 0 0 0 0 0 0 0 0 0 0 0 0 0
0 0 0 0 0 0 0 0 0 0 0 0 0 0 0 0 0 0 0 0 0 0 -0 0 0 0 0 0 0 0 0 0 0 0 0 0 0 0 0 0 0 0 0
0 0 0 0 0 0 0 0 0 0 0 0 0 0 0 0 0 0 0 0 -0 -0 -0 0 0 0 0 0 -0 0 0 0 0 0 0 0 0 0 0 0 0 0 0
0 0 0 0 0 0 0 0 0 0 0 0 0 0 0 0 0 0 0 0 0 -0 -0 0 0 0 -0 -0 0 0 0 0 0 0 0 0 0 0 0 0 0 -0 -0
0 0 0 0 0 0 0 0 0 0 0 0 0 0 0 0 0 0 0 0 0 0 0 0 0 0 0 0 0 0 0 0 0 0 0 0 0 0 0 0 0 0 0
-0 -0 0 0 0 0 0 0 0 0 0 0 0 0 0 0 0 0 0 0 0 0 0 0 0 0 0 0 0 0 0 0 0 0 0 0 0 0 0 0 0 0 0
0 0 0 0 0 0 0 0 0 0 0 0 0 0 0 0 0 0 0 0 0 0 0 0 -0 -0 -0 -0 -0 -0 0 0 0 0 0 0 0 0 0 0 0 0 0
0 0 0 0 0 0 0 0 0 0 0 -0 -0 0 0 0 0 0 0 0 0 0 -0 -0 -0 -0 -0 -0 -0 -0 -0 -0 0 0 0 0 0 0 0 0 0 0 0
0 0 0 0 0 0 0 0 0 0 0 0 0 0 0 0 0 0 0 0 0 -0 0 -0 -0 -0 -0 -0 -0 0 0 0 0 0 0 0 0 0 0 0 0 0 0
0 0 0 0 0 0 0 0 0 0 0 0 0 0 0 0 -0 -0 0 0 0 0 0 -0 -0 -0 -0 -0 -0 0 0 0 0 0 0 0 0 0 -0 -0 -0 -0 -0
0 0 0 0 0 0 0 0 0 0 0 0 0 0 0 -0 -0 -0 -0 0 0 0 0 -0 -0 -0 -0 -0 -0 0 0 0 0 0 0 0 0 -0 -0 0 -0 0 0
0 0 0 0 0 0 0 0 0 0 0 0 0 0 0 0 0 0 -0 -0 -0 -0 -0 -0 -0 -0 -0 -0 -0 0 0 0 0 0 0 0 0 -0 -0 -0 -0 0 -0
Wind_Speed_500mb
8 12 21 26 33 38 39 41 40 34 29 24 21 17 11 8 6 17 18 16 11 11 8 5 4 9 14 16 13 14 24 28 30 36 41 40 38 34 33 31 36 33 46
10 14 19 27 33 36 40 43 45 43 36 33 31 26 21 21 23 15 16 16 19 16 15 13 11 9 11 12 13 15 18 22 20 28 29 26 29 31 35 34 31 41 45
9 13 18 26 29 30 35 40 42 42 41 38 40 40 34 23 17 22 23 27 25 28 28 23 20 14 12 11 12 18 20 18 21 27 35 30 27 21 27 30 33 30 45
10 18 21 27 28 30 34 36 42 39 40 40 43 49 42 28 22 18 23 30 34 36 39 38 35 30 25 19 19 18 14 15 15 18 20 19 16 13 16 21 24 39 49
20 24 27 29 33 33 33 36 36 39 50 50 46 49 51 36 25 23 23 28 31 34 37 35 39 36 30 25 16 17 17 13 10 11 14 14 13 11 9 15 19 17 29
36 28 29 38 39 38 28 31 39 43 45 44 49 60 54 34 26 24 23 25 29 36 37 31 24 25 30 29 33 27 19 16 12 14 14 21 18 10 8 11 13 16 15
21 22 31 29 26 22 22 30 32 35 41 49 59 55 47 33 27 24 26 22 26 28 30 33 25 22 21 19 27 37 34 31 28 25 21 23 26 23 17 10 11 7 4
3 4 15 19 21 24 31 36 38 42 50 58 51 46 43 38 36 29 24 23 25 25 23 30 24 26 25 22 19 20 19 17 22 23 26 33 35 35 31 24 22 21 22
20 22 27 30 33 35 38 43 50 54 55 54 50 45 39 32 30 26 24 27 30 27 20 22 26 29 20 17 16 16 19 23 26 31 35 34 35 39 43 37 31 24 25
27 25 30 36 41 48 49 48 43 44 43 46 44 34 28 26 25 28 30 25 29 27 24 25 29 30 31 27 26 29 31 37 43 46 40 33 30 30 31 43 42 36 27
34 38 41 44 51 53 60 49 37 38 41 43 38 33 27 26 28 33 36 37 37 35 34 32 32 33 35 37 39 36 38 36 46 51 45 35 28 27 25 28 31 44 43
31 36 45 50 54 50 43 34 33 34 36 34 34 36 30 32 38 38 38 40 40 39 41 42 44 44 47 47 46 46 45 54 57 46 36 34 33 29 14 14 15 26 35
39 44 45 35 26 24 26 28 30 28 32 37 40 43 41 38 39 36 37 42 45 46 47 51 55 54 53 51 48 54 62 60 50 39 35 33 32 25 24 25 24 23 12
25 27 27 32 32 31 27 26 26 32 34 37 39 39 38 33 34 35 36 38 42 40 40 40 41 44 47 49 48 50 45 34 29 33 34 27 20 22 24 26 29 30 27
26 27 37 39 34 27 26 25 26 33 32 32 34 38 33 32 35 38 42 38 32 39 33 27 28 25 25 21 20 21 21 23 24 23 26 29 30 30 28 30 30 31 28
26 40 37 35 31 23 24 20 24 31 31 28 31 31 26 31 35 37 26 30 35 30 30 27 26 27 30 32 33 32 30 30 32 32 32 29 29 30 32 33 36 37 38
33 33 28 27 24 22 22 26 38 24 23 27 29 31 35 39 28 15 21 31 36 34 26 28 29 32 33 34 39 37 37 39 39 40 40 39 37 35 36 42 43 45 44
25 21 22 21 22 21 23 21 19 23 27 29 26 30 33 25 20 13 17 25 30 35 29 31 32 33 38 39 37 35 36 37 39 41 40 37 36 36 41 42 42 44 47
15 11 18 20 25 28 32 23 20 26 30 35 35 37 37 10 12 15 21 23 30 25 26 29 28 30 36 37 36 36 34 33 35 33 31 30 33 39 43 40 43 46 54
8 11 15 19 20 22 27 26 27 28 32 32 33 33 30 13 16 21 19 16 17 23 23 26 32 38 41 39 34 34 37 37 35 32 35 38 41 43 45 46 44 47 50
10 15 20 25 25 22 18 24 26 34 36 33 27 25 23 22 22 13 12 14 19 21 20 22 31 40 43 43 43 41 38 36 32 36 38 33 35 38 35 36 38 41 47
19 25 21 15 14 14 16 17 26 29 38 43 45 31 33 32 36 36 20 27 24 22 18 22 30 41 47 50 48 48 39 38 34 35 33 32 36 42 48 52 55 52 52
19 17 13 18 16 16 13 13 17 26 33 36 33 34 34 34 31 32 31 29 22 24 18 20 32 43 49 46 44 44 39 38 38 39 39 41 43 46 49 52 52 56 55
10 13 16 12 13 20 17 19 20 15 21 19 19 22 23 26 26 24 24 23 22 19 16 26 39 46 45 45 44 43 38 35 39 34 38 42 42 45 51 51 55 58 55
17 15 14 19 14 17 19 21 17 13 18 22 22 25 29 29 25 23 21 19 22 25 31 39 40 41 42 43 43 43 41 35 32 32 38 40 42 47 48 49 58 58 51
11 18 18 11 12 12 20 26 19 13 19 22 23 25 28 28 26 24 23 23 25 28 32 34 36 38 41 43 45 44 42 40 35 33 35 40 43 49 56 52 56 52 44
Wind_Direction_500mb
79 38 14 19 16 16 20 23 18 13 11 5 355 343 337 332 311 279 295 300 319 288 299 263 311 298 280 274 271 277 270 264 266 273 273 276 278 277 279 284 266 253 232
326 350 15 13 15 20 23 23 21 18 15 14 8 353 329 319 323 321 327 317 301 310 305 298 312 330 343 326 311 307 307 302 292 284 281 277 276 281 274 263 241 243 211
60 18 17 3 360 6 11 11 17 18 13 15 14 8 358 343 331 306 321 326 297 290 296 302 317 318 294 300 309 316 315 312 297 285 288 284 282 277 270 266 241 243 235
318 327 351 353 348 348 349 355 1 8 3 360 2 1 356 345 333 332 316 307 313 312 297 296 296 295 304 316 308 295 298 305 303 296 288 301 290 266 270 265 252 240 245
291 320 328 339 338 335 327 340 348 348 351 350 348 346 341 334 334 324 326 330 330 329 327 300 289 285 286 284 326 313 274 278 307 307 305 330 7 15 284 270 263 251 240
274 300 319 317 317 317 308 330 330 335 339 337 335 333 332 329 325 312 316 323 327 331 334 329 321 289 279 283 277 297 312 300 288 301 324 318 329 350 12 344 291 263 253
255 286 302 308 317 311 312 317 319 321 326 327 326 329 335 330 326 319 306 317 316 326 333 333 324 315 311 308 291 283 291 294 296 302 298 297 304 320 313 308 320 321 261
211 265 290 306 314 312 307 309 315 321 325 327 331 327 327 328 327 318 309 301 303 309 324 336 332 316 314 312 297 296 309 301 299 305 299 288 284 286 299 288 275 285 279
293 299 300 304 310 311 312 315 311 312 317 317 320 328 331 331 332 318 304 302 302 301 298 308 316 331 322 323 324 313 300 297 298 303 303 294 286 276 266 271 275 273 279
286 295 308 314 312 313 315 313 312 314 316 322 324 331 339 337 321 321 321 313 307 308 279 287 296 311 316 306 307 314 311 311 313 309 303 298 291 280 273 260 260 267 267
306 306 310 314 316 317 312 299 303 308 315 318 318 327 327 322 317 319 317 316 313 312 303 290 291 298 303 308 307 312 315 317 320 316 310 307 308 303 281 267 263 258 257
294 304 309 309 312 313 315 317 307 308 307 313 316 316 313 311 309 313 313 311 310 306 304 306 301 294 294 295 296 300 302 309 316 314 313 307 310 322 282 266 280 275 255
310 312 318 327 324 325 331 328 325 320 315 314 315 315 311 314 313 309 309 307 304 301 298 293 290 291 289 290 290 294 301 306 307 303 303 309 317 312 310 302 301 307 296
337 341 334 328 331 321 321 328 327 320 313 319 323 325 322 328 330 327 327 326 325 322 319 313 304 297 290 291 293 295 299 305 310 300 294 293 305 310 300 309 313 310 306
333 335 335 330 330 320 316 323 317 316 326 326 323 322 322 325 330 333 330 335 339 336 336 342 346 354 348 353 338 327 321 325 315 322 319 307 302 303 297 294 292 301 307
334 337 336 339 334 324 327 333 334 342 331 326 326 332 323 314 317 319 327 330 324 330 334 341 349 339 334 334 334 331 330 316 311 314 313 305 305 298 291 288 292 297 300
331 337 339 338 353 342 337 331 335 353 342 328 328 329 325 309 311 350 9 14 5 359 360 6 3 1 356 354 350 344 330 321 314 309 306 308 304 296 293 288 290 294 292
330 345 348 351 351 352 348 344 358 3 358 353 352 356 353 331 327 315 358 12 8 1 12 18 14 9 9 2 354 343 338 333 324 319 317 312 310 306 299 294 291 292 288
342 25 29 30 27 19 18 10 3 358 356 349 340 336 351 351 42 21 17 14 4 10 15 8 3 9 2 349 344 342 340 332 326 321 324 324 311 302 301 303 299 290 286
27 35 23 5 5 16 18 16 13 1 350 347 333 333 358 7 2 4 9 14 25 19 18 24 17 4 355 349 339 330 326 326 325 320 318 315 310 307 305 300 294 289 283
20 15 9 2 4 11 9 11 13 19 8 7 1 2 0 14 3 10 36 23 9 2 5 14 6 2 359 356 352 344 337 335 327 311 311 311 317 320 320 316 307 298 294
14 360 359 358 355 15 6 18 29 27 28 30 34 53 58 51 38 30 39 30 21 12 2 6 358 352 354 351 347 346 344 343 337 334 325 316 317 323 322 316 309 304 301
3 15 24 34 64 32 24 353 0 34 39 33 32 28 31 27 37 33 31 27 19 2 25 358 343 341 347 348 347 347 344 345 349 343 337 330 322 318 319 318 317 315 306
23 22 40 62 49 33 29 11 35 40 39 41 37 25 17 5 360 0 16 19 15 20 355 334 340 347 349 351 352 352 347 340 344 343 339 335 329 325 320 323 327 320 305
25 26 38 42 37 18 16 8 11 64 23 11 8 1 354 351 351 349 346 345 342 343 343 343 346 349 353 356 358 358 355 348 344 342 344 346 341 337 334 329 329 320 313
34 40 52 34 10 15 15 17 19 6 0 0 353 356 1 4 4 -0 359 357 347 341 344 350 354 357 0 2 5 2 -0 357 346 337 336 339 338 343 344 335 336 332 324
Wind_Speed_850mb
8 12 21 26 33 38 39 41 40 34 29 24 21 17 11 8 6 17 18 16 11 11 8 5 4 9 14 16 13 14 24 28 30 36 41 40 38 34 33 31 36 33 46
10 14 19 27 33 36 40 43 45 43 36 33 31 26 21 21 23 15 16 16 19 16 15 13 11 9 11 12 13 15 18 22 20 28 29 26 29 31 35 34 31 41 45
9 13 18 26 29 30 35 40 42 42 41 38 40 40 34 23 17 22 23 27 25 28 28 23 20 14 12 11 12 18 20 18 21 27 35 30 27 21 27 30 33 30 45
10 18 21 27 28 30 34 36 42 39 40 40 43 49 42 28 22 18 23 30 34 36 39 38 35 30 25 19 19 18 14 15 15 18 20 19 16 13 16 21 24 39 49
20 24 27 29 33 33 33 36 36 39 50 50 46 49 51 36 25 23 23 28 31 34 37 35 39 36 30 25 16 17 17 13 10 11 14 14 13 11 9 15 19 17 29
36 28 29 38 39 38 28 31 39 43 45 44 49 60 54 34 26 24 23 25 29 36 37 31 24 25 30 29 33 27 19 16 12 14 14 21 18 10 8 11 13 16 15
21 22 31 29 26 22 22 30 32 35 41 49 59 55 47 33 27 24 26 22 26 28 30 33 25 22 21 19 27 37 34 31 28 25 21 23 26 23 17 10 11 7 4
3 4 15 19 21 24 31 36 38 42 50 58 51 46 43 38 36 29 24 23 25 25 23 30 24 26 25 22 19 20 19 17 22 23 26 33 35 35 31 24 22 21 22
20 22 27 30 33 35 38 43 50 54 55 54 50 45 39 32 30 26 24 27 30 27 20 22 26 29 20 17 16 16 19 23 26 31 35 34 35 39 43 37 31 24 25
27 25 30 36 41 48 49 48 43 44 43 46 44 34 28 26 25 28 30 25 29 27 24 25 29 30 31 27 26 29 31 37 43 46 40 33 30 30 31 43 42 36 27
34 38 41 44 51 53 60 49 37 38 41 43 38 33 27 26 28 33 36 37 37 35 34 32 32 33 35 37 39 36 38 36 46 51 45 35 28 27 25 28 31 44 43
31 36 45 50 54 50 43 34 33 34 36 34 34 36 30 32 38 38 38 40 40 39 41 42 44 44 47 47 46 46 45 54 57 46 36 34 33 29 14 14 15 26 35
39 44 45 35 26 24 26 28 30 28 32 37 40 43 41 38 39 36 37 42 45 46 47 51 55 54 53 51 48 54 62 60 50 39 35 33 32 25 24 25 24 23 12
25 27 27 32 32 31 27 26 26 32 34 37 39 39 38 33 34 35 36 38 42 40 40 40 41 44 47 49 48 50 45 34 29 33 34 27 20 22 24 26 29 30 27
26 27 37 39 34 27 26 25 26 33 32 32 34 38 33 32 35 38 42 38 32 39 33 27 28 25 25 21 20 21 21 23 24 23 26 29 30 30 28 30 30 31 28
26 40 37 35 31 23 24 20 24 31 31 28 31 31 26 31 35 37 26 30 35 30 30 27 26 27 30 32 33 32 30 30 32 32 32 29 29 30 32 33 36 37 38
33 33 28 27 24 22 22 26 38 24 23 27 29 31 35 39 28 15 21 31 36 34 26 28 29 32 33 34 39 37 37 39 39 40 40 39 37 35 36 42 43 45 44
25 21 22 21 22 21 23 21 19 23 27 29 26 30 33 25 20 13 17 25 30 35 29 31 32 33 38 39 37 35 36 37 39 41 40 37 36 36 41 42 42 44 47
15 11 18 20 25 28 32 23 20 26 30 35 35 37 37 10 12 15 21 23 30 25 26 29 28 30 36 37 36 36 34 33 35 33 31 30 33 39 43 40 43 46 54
8 11 15 19 20 22 27 26 27 28 32 32 33 33 30 13 16 21 19 16 17 23 23 26 32 38 41 39 34 34 37 37 35 32 35 38 41 43 45 46 44 47 50
10 15 20 25 25 22 18 24 26 34 36 33 27 25 23 22 22 13 12 14 19 21 20 22 31 40 43 43 43 41 38 36 32 36 38 33 35 38 35 36 38 41 47
19 25 21 15 14 14 16 17 26 29 38 43 45 31 33 32 36 36 20 27 24 22 18 22 30 41 47 50 48 48 39 38 34 35 33 32 36 42 48 52 55 52 52
19 17 13 18 16 16 13 13 17 26 33 36 33 34 34 34 31 32 31 29 22 24 18 20 32 43 49 46 44 44 39 38 38 39 39 41 43 46 49 52 52 56 55
10 13 16 12 13 20 17 19 20 15 21 19 19 22 23 26 26 24 24 23 22 19 16 26 39 46 45 45 44 43 38 35 39 34 38 42 42 45 51 51 55 58 55
17 15 14 19 14 17 19 21 17 13 18 22 22 25 29 29 25 23 21 19 22 25 31 39 40 41 42 43 43 43 41 35 32 32 38 40 42 47 48 49 58 58 51
11 18 18 11 12 12 20 26 19 13 19 22 23 25 28 28 26 24 23 23 25 28 32 34 36 38 41 43 45 44 42 40 35 33 35 40 43 49 56 52 56 52 44
Wind_Direction_850mb
79 38 14 19 16 16 20 23 18 13 11 5 355 343 337 332 311 279 295 300 319 288 299 263 311 298 280 274 271 277 270 264 266 273 273 276 278 277 279 284 266 253 232
326 350 15 13 15 20 23 23 21 18 15 14 8 353 329 319 323 321 327 317 301 310 305 298 312 330 343 326 311 307 307 302 292 284 281 277 276 281 274 263 241 243 211
60 18 17 3 360 6 11 11 17 18 13 15 14 8 358 343 331 306 321 326 297 290 296 302 317 318 294 300 309 316 315 312 297 285 288 284 282 277 270 266 241 243 235
318 327 351 353 348 348 349 355 1 8 3 360 2 1 356 345 333 332 316 307 313 312 297 296 296 295 304 316 308 295 298 305 303 296 288 301 290 266 270 265 252 240 245
291 320 328 339 338 335 327 340 348 348 351 350 348 346 341 334 334 324 326 330 330 329 327 300 289 285 286 284 326 313 274 278 307 307 305 330 7 15 284 270 263 251 240
274 300 319 317 317 317 308 330 330 335 339 337 335 333 332 329 325 312 316 323 327 331 334 329 321 289 279 283 277 297 312 300 288 301 324 318 329 350 12 344 291 263 253
255 286 302 308 317 311 312 317 319 321 326 327 326 329 335 330 326 319 306 317 316 326 333 333 324 315 311 308 291 283 291 294 296 302 298 297 304 320 313 308 320 321 261
211 265 290 306 314 312 307 309 315 321 325 327 331 327 327 328 327 318 309 301 303 309 324 336 332 316 314 312 297 296 309 301 299 305 299 288 284 286 299 288 275 285 279
293 299 300 304 310 311 312 315 311 312 317 317 320 328 331 331 332 318 304 302 302 301 298 308 316 331 322 323 324 313 300 297 298 303 303 294 286 276 266 271 275 273 279
286 295 308 314 312 313 315 313 312 314 316 322 324 331 339 337 321 321 321 313 307 308 279 287 296 311 316 306 307 314 311 311 313 309 303 298 291 280 273 260 260 267 267
306 306 310 314 316 317 312 299 303 308 315 318 318 327 327 322 317 319 317 316 313 312 303 290 291 298 303 308 307 312 315 317 320 316 310 307 308 303 281 267 263 258 257
294 304 309 309 312 313 315 317 307 308 307 313 316 316 313 311 309 313 313 311 310 306 304 306 301 294 294 295 296 300 302 309 316 314 313 307 310 322 282 266 280 275 255
310 312 318 327 324 325 331 328 325 320 315 314 315 315 311 314 313 309 309 307 304 301 298 293 290 291 289 290 290 294 301 306 307 303 303 309 317 312 310 302 301 307 296
337 341 334 328 331 321 321 328 327 320 313 319 323 325 322 328 330 327 327 326 325 322 319 313 304 297 290 291 293 295 299 305 310 300 294 293 305 310 300 309 313 310 306
333 335 335 330 330 320 316 323 317 316 326 326 323 322 322 325 330 333 330 335 339 336 336 342 346 354 348 353 338 327 321 325 315 322 319 307 302 303 297 294 292 301 307
334 337 336 339 334 324 327 333 334 342 331 326 326 332 323 314 317 319 327 330 324 330 334 341 349 339 334 334 334 331 330 316 311 314 313 305 305 298 291 288 292 297 300
331 337 339 338 353 342 337 331 335 353 342 328 328 329 325 309 311 350 9 14 5 359 360 6 3 1 356 354 350 344 330 321 314 309 306 308 304 296 293 288 290 294 292
330 345 348 351 351 352 348 344 358 3 358 353 352 356 353 331 327 315 358 12 8 1 12 18 14 9 9 2 354 343 338 333 324 319 317 312 310 306 299 294 291 292 288
342 25 29 30 27 19 18 10 3 358 356 349 340 336 351 351 42 21 17 14 4 10 15 8 3 9 2 349 344 342 340 332 326 321 324 324 311 302 301 303 299 290 286
27 35 23 5 5 16 18 16 13 1 350 347 333 333 358 7 2 4 9 14 25 19 18 24 17 4 355 349 339 330 326 326 325 320 318 315 310 307 305 300 294 289 283
20 15 9 2 4 11 9 11 13 19 8 7 1 2 0 14 3 10 36 23 9 2 5 14 6 2 359 356 352 344 337 335 327 311 311 311 317 320 320 316 307 298 294
14 360 359 358 355 15 6 18 29 27 28 30 34 53 58 51 38 30 39 30 21 12 2 6 358 352 354 351 347 346 344 343 337 334 325 316 317 323 322 316 309 304 301
3 15 24 34 64 32 24 353 0 34 39 33 32 28 31 27 37 33 31 27 19 2 25 358 343 341 347 348 347 347 344 345 349 343 337 330 322 318 319 318 317 315 306
23 22 40 62 49 33 29 11 35 40 39 41 37 25 17 5 360 0 16 19 15 20 355 334 340 347 349 351 352 352 347 340 344 343 339 335 329 325 320 323 327 320 305
25 26 38 42 37 18 16 8 11 64 23 11 8 1 354 351 351 349 346 345 342 343 343 343 346 349 353 356 358 358 355 348 344 342 344 346 341 337 334 329 329 320 313
34 40 52 34 10 15 15 17 19 6 0 0 353 356 1 4 4 -0 359 357 347 341 344 350 354 357 0 2 5 2 -0 357 346 337 336 339 338 343 344 335 336 332 324